| time (UTC) | temp C | wind direction | speed KPH | gust KPH | rain 1hr cm | rain 24hr cm | rain mn cm | humidity % | barometer mb |
| 20260901054551 | 19 | 144 | 0.0 | 4.8 | 0.00 | 0.00 | 0.00 | 61 | 1008.6 |
| 20260901053109 | 19 | 162 | 1.6 | 6.4 | 0.00 | 0.00 | 0.00 | 61 | 1008.6 |
| 20260901051558 | 19 | 165 | 0.0 | 6.4 | 0.00 | 0.00 | 0.00 | 61 | 1008.5 |
| 20260901050052 | 20 | 0 | 0.0 | 0.0 | 0.00 | 0.00 | 0.00 | 61 | 1008.2 |
| 20260901044617 | 20 | 0 | 0.0 | 0.0 | 0.00 | 0.00 | 0.00 | 62 | 1007.9 |
| 20260901043056 | 20 | 0 | 0.0 | 0.0 | 0.00 | 0.00 | 0.00 | 60 | 1007.8 |
| 20260901041555 | 21 | 0 | 0.0 | 0.0 | 0.00 | 0.00 | 0.00 | 58 | 1007.8 |
| 20260901040104 | 21 | 0 | 0.0 | 0.0 | 0.00 | 0.00 | 0.00 | 56 | 1007.5 |
| 20260901034558 | 22 | 0 | 0.0 | 0.0 | 0.00 | 0.00 | 0.00 | 54 | 1007.2 |
| 20260901033055 | 23 | 0 | 0.0 | 6.4 | 0.00 | 0.00 | 0.00 | 51 | 1007.0 |
| 20260901031554 | 24 | 165 | 1.6 | 4.8 | 0.00 | 0.00 | 0.00 | 46 | 1007.1 |
| 20260901024547 | 26 | 0 | 0.0 | 3.2 | 0.00 | 0.00 | 0.00 | 42 | 1007.0 |
| 20260901023055 | 27 | 213 | 3.2 | 11.3 | 0.00 | 0.00 | 0.00 | 39 | 1006.9 |
| 20260901021557 | 27 | 184 | 1.6 | 8.0 | 0.00 | 0.00 | 0.00 | 39 | 1006.9 |
| 20260901020058 | 27 | 186 | 3.2 | 9.7 | 0.00 | 0.00 | 0.00 | 39 | 1006.8 |
| 20260901014556 | 28 | 233 | 6.4 | 14.5 | 0.00 | 0.00 | 0.00 | 38 | 1006.7 |
| 20260901013047 | 28 | 261 | 6.4 | 11.3 | 0.00 | 0.00 | 0.00 | 38 | 1006.7 |
| 20260901011604 | 28 | 236 | 1.6 | 4.8 | 0.00 | 0.00 | 0.00 | 36 | 1006.6 |
| 20260901010053 | 28 | 306 | 3.2 | 8.0 | 0.00 | 0.00 | 0.00 | 38 | 1006.5 |
| 20260901004603 | 28 | 81 | 1.6 | 8.0 | 0.00 | 0.00 | 0.00 | 36 | 1006.7 |
| 20260901003048 | 29 | 65 | 1.6 | 6.4 | 0.00 | 0.00 | 0.00 | 38 | 1006.6 |
| 20260901001555 | 29 | 352 | 3.2 | 8.0 | 0.00 | 0.00 | 0.00 | 36 | 1006.7 |
| 20260901000057 | 29 | 348 | 0.0 | 4.8 | 0.00 | 0.00 | 0.00 | 34 | 1006.7 |
| 20260831234550 | 30 | 317 | 4.8 | 9.7 | 0.00 | 0.00 | 0.00 | 34 | 1006.7 |
| 20260831233049 | 30 | 317 | 4.8 | 11.3 | 0.00 | 0.00 | 0.00 | 35 | 1006.8 |
| 20260831231602 | 30 | 262 | 4.8 | 12.9 | 0.00 | 0.00 | 0.00 | 35 | 1006.9 |
| 20260831230055 | 28 | 0 | 1.6 | 9.7 | 0.00 | 0.00 | 0.00 | 37 | 1007.0 |
| 20260831224601 | 30 | 265 | 4.8 | 11.3 | 0.00 | 0.00 | 0.00 | 34 | 1007.1 |
| 20260831223102 | 29 | 285 | 3.2 | 6.4 | 0.00 | 0.00 | 0.00 | 36 | 1007.3 |
| 20260831221547 | 28 | 71 | 1.6 | 4.8 | 0.00 | 0.00 | 0.00 | 37 | 1007.4 |
| 20260831220059 | 28 | 80 | 3.2 | 14.5 | 0.00 | 0.00 | 0.00 | 40 | 1007.7 |
| 20260831214622 | 27 | 279 | 1.6 | 16.1 | 0.00 | 0.00 | 0.00 | 39 | 1007.8 |
| 20260831213059 | 27 | 105 | 1.6 | 8.0 | 0.00 | 0.00 | 0.00 | 40 | 1008.2 |
| 20260831211601 | 28 | 283 | 3.2 | 12.9 | 0.00 | 0.00 | 0.00 | 39 | 1008.2 |
| 20260831210057 | 27 | 83 | 3.2 | 14.5 | 0.00 | 0.00 | 0.00 | 41 | 1008.3 |
| 20260831204603 | 27 | 304 | 4.8 | 14.5 | 0.00 | 0.00 | 0.00 | 41 | 1008.4 |
| 20260831203055 | 26 | 326 | 3.2 | 8.0 | 0.00 | 0.00 | 0.00 | 45 | 1008.5 |
| 20260831201559 | 25 | 352 | 1.6 | 12.9 | 0.00 | 0.00 | 0.00 | 46 | 1008.6 |
| 20260831200100 | 25 | 0 | 1.6 | 12.9 | 0.00 | 0.00 | 0.00 | 45 | 1009.0 |
| 20260831194558 | 24 | 258 | 4.8 | 12.9 | 0.00 | 0.00 | 0.00 | 47 | 1009.3 |
| 20260831193052 | 24 | 265 | 6.4 | 16.1 | 0.00 | 0.00 | 0.00 | 49 | 1009.4 |
| 20260831191601 | 22 | 350 | 1.6 | 16.1 | 0.00 | 0.00 | 0.00 | 52 | 1009.6 |
| 20260831190112 | 22 | 278 | 6.4 | 14.5 | 0.00 | 0.00 | 0.00 | 50 | 1009.8 |
| 20260831184559 | 22 | 66 | 4.8 | 16.1 | 0.00 | 0.00 | 0.00 | 52 | 1009.9 |
| 20260831183100 | 22 | 343 | 3.2 | 8.0 | 0.00 | 0.00 | 0.00 | 53 | 1010.2 |
| 20260831181559 | 22 | 324 | 4.8 | 12.9 | 0.00 | 0.00 | 0.00 | 54 | 1010.4 |
| 20260831180058 | 21 | 13 | 0.0 | 14.5 | 0.00 | 0.00 | 0.00 | 54 | 1010.6 |
| 20260831174607 | 21 | 57 | 1.6 | 14.5 | 0.00 | 0.00 | 0.00 | 58 | 1010.6 |
| 20260831173058 | 20 | 329 | 6.4 | 11.3 | 0.00 | 0.00 | 0.00 | 58 | 1010.8 |
| 20260831171554 | 19 | 342 | 4.8 | 9.7 | 0.00 | 0.00 | 0.00 | 62 | 1010.9 |
| 20260831170050 | 18 | 0 | 1.6 | 11.3 | 0.00 | 0.00 | 0.00 | 71 | 1011.0 |
| 20260831164607 | 17 | 9 | 0.0 | 9.7 | 0.00 | 0.00 | 0.00 | 74 | 1011.0 |
| 20260831163057 | 15 | 0 | 0.0 | 0.0 | 0.00 | 0.00 | 0.00 | 79 | 1011.2 |
| 20260831161603 | 13 | 0 | 0.0 | 0.0 | 0.00 | 0.00 | 0.00 | 84 | 1011.4 |
| 20260831154621 | 11 | 0 | 0.0 | 1.6 | 0.00 | 0.00 | 0.00 | 87 | 1011.7 |
| 20260831153103 | 11 | 128 | 0.0 | 3.2 | 0.00 | 0.00 | 0.00 | 88 | 1011.8 |
| 20260831151602 | 10 | 0 | 0.0 | 3.2 | 0.00 | 0.00 | 0.00 | 88 | 1011.8 |
| 20260831150058 | 10 | 0 | 0.0 | 0.0 | 0.00 | 0.00 | 0.00 | 88 | 1011.9 |
| 20260831144556 | 10 | 0 | 0.0 | 0.0 | 0.00 | 0.00 | 0.00 | 89 | 1012.0 |
| 20260831143101 | 9 | 0 | 0.0 | 0.0 | 0.00 | 0.00 | 0.00 | 90 | 1012.0 |
| 20260831141553 | 9 | 0 | 0.0 | 1.6 | 0.00 | 0.00 | 0.00 | 90 | 1012.1 |
| 20260831140059 | 9 | 0 | 0.0 | 0.0 | 0.00 | 0.00 | 0.00 | 90 | 1012.1 |
| 20260831134602 | 9 | 0 | 0.0 | 0.0 | 0.00 | 0.00 | 0.00 | 90 | 1012.1 |
| 20260831133103 | 9 | 0 | 0.0 | 0.0 | 0.00 | 0.00 | 0.00 | 89 | 1012.1 |
| 20260831131600 | 9 | 0 | 0.0 | 0.0 | 0.00 | 0.00 | 0.00 | 89 | 1012.2 |
| 20260831130055 | 9 | 0 | 0.0 | 0.0 | 0.00 | 0.00 | 0.00 | 89 | 1012.3 |
| 20260831124556 | 10 | 189 | 0.0 | 4.8 | 0.00 | 0.00 | 0.00 | 89 | 1012.4 |
| 20260831123048 | 10 | 0 | 0.0 | 1.6 | 0.00 | 0.00 | 0.00 | 88 | 1012.4 |
| 20260831121554 | 10 | 0 | 0.0 | 3.2 | 0.00 | 0.00 | 0.00 | 89 | 1012.5 |
| 20260831120107 | 10 | 0 | 0.0 | 1.6 | 0.00 | 0.00 | 0.00 | 88 | 1012.8 |
| 20260831114557 | 10 | 0 | 0.0 | 1.6 | 0.00 | 0.00 | 0.00 | 87 | 1012.7 |
| 20260831113128 | 10 | 192 | 1.6 | 4.8 | 0.00 | 0.00 | 0.00 | 86 | 1012.8 |
| 20260831111557 | 10 | 175 | 0.0 | 3.2 | 0.00 | 0.00 | 0.00 | 86 | 1013.0 |
| 20260831110058 | 10 | 0 | 0.0 | 1.6 | 0.00 | 0.00 | 0.00 | 86 | 1013.1 |
| 20260831104555 | 11 | 176 | 0.0 | 3.2 | 0.00 | 0.00 | 0.00 | 86 | 1013.1 |
| 20260831103053 | 11 | 0 | 1.6 | 4.8 | 0.00 | 0.00 | 0.00 | 86 | 1013.2 |
| 20260831101604 | 11 | 0 | 0.0 | 0.0 | 0.00 | 0.00 | 0.00 | 85 | 1013.1 |
| 20260831100057 | 11 | 0 | 0.0 | 1.6 | 0.00 | 0.00 | 0.00 | 85 | 1013.2 |
| 20260831094557 | 11 | 0 | 0.0 | 3.2 | 0.00 | 0.00 | 0.00 | 84 | 1013.5 |
| 20260831093112 | 11 | 0 | 0.0 | 6.4 | 0.00 | 0.00 | 0.00 | 83 | 1013.6 |
| 20260831091555 | 12 | 169 | 0.0 | 4.8 | 0.00 | 0.00 | 0.00 | 83 | 1013.7 |
| 20260831090059 | 12 | 0 | 0.0 | 1.6 | 0.00 | 0.00 | 0.00 | 82 | 1013.7 |
| 20260831084557 | 12 | 0 | 0.0 | 6.4 | 0.00 | 0.00 | 0.00 | 82 | 1013.9 |
| 20260831083056 | 12 | 0 | 0.0 | 1.6 | 0.00 | 0.00 | 0.00 | 81 | 1014.1 |
| 20260831081549 | 12 | 0 | 0.0 | 1.6 | 0.00 | 0.00 | 0.00 | 80 | 1014.1 |
| 20260831080050 | 13 | 0 | 0.0 | 3.2 | 0.00 | 0.00 | 0.00 | 79 | 1014.3 |
| 20260831074556 | 13 | 156 | 1.6 | 6.4 | 0.00 | 0.00 | 0.00 | 79 | 1014.4 |
| 20260831073050 | 13 | 0 | 0.0 | 3.2 | 0.00 | 0.00 | 0.00 | 79 | 1014.5 |
| 20260831071600 | 13 | 0 | 0.0 | 3.2 | 0.00 | 0.00 | 0.00 | 77 | 1014.5 |
| 20260831070059 | 13 | 0 | 0.0 | 6.4 | 0.00 | 0.00 | 0.00 | 77 | 1014.6 |
| 20260831064557 | 14 | 161 | 1.6 | 3.2 | 0.00 | 0.00 | 0.00 | 76 | 1014.9 |
| 20260831063105 | 14 | 0 | 0.0 | 3.2 | 0.00 | 0.00 | 0.00 | 75 | 1014.8 |
| 20260831061552 | 15 | 163 | 0.0 | 6.4 | 0.00 | 0.00 | 0.00 | 74 | 1015.0 |
| 20260831060054 | 15 | 0 | 0.0 | 1.6 | 0.00 | 0.00 | 0.00 | 74 | 1015.1 |